Weather in Altynkan

Uzbekistan     40°59′50″N   70°44′22″E
temp.,
°C
wind,
m/s
gust,
m/s
humid.,
%
clouds,
%
prec.,
mm/h
press.,
hPa
HPBL,
m
15 april, thu
thu1523:00+13nnw33493 0.4 101441
02:00+12nnw3340100 0.0 101324
05:00+11n3242100 0.0 101415
08:00+13se1140100 0.0 1015267
11:00+15sse324214 0.1 1015986
14:00+17s43395 0.3 10141498
17:00+16sw3340100 0.6 10141110
20:00+14nw2345100 0.3 1015129
16 april, fri
fri1623:00+13nnw224030 0.3 101528
02:00+11nne014511 0.0 101413
05:00+10wnw214748 0.1 101614
08:00+13s114055 0.0 1017391
11:00+15s3336100 0.0 10161467
14:00+17wsw4624100 0.0 10161884
17:00+16w46230 0.0 10161863
20:00+13nw45321 0.0 1017102
17 april, sat
sat1723:00+11nnw56385 0.0 101796
02:00+11nnw33304 0.0 101620
05:00+9nw22325 0.0 101617
08:00+13ssw122413 0.0 1017374
11:00+15s33260 0.0 10171364
14:00+17s45220 0.0 10152091
17:00+18sw35200 0.0 10152082
20:00+15wnw333392 0.0 101661
18 april, sun
sun1823:00+13nnw5642100 0.0 1016146
02:00+11nw5648100 0.0 1016135
05:00+11nnw4549100 0.0 1017146
08:00+12nw2339100 0.0 1019476
11:00+14sw2332100 0.0 10191728
14:00+15w6532100 0.1 10182153
17:00+15w783110 0.1 10181641
20:00+12nw56408 0.0 1019279
19 april, mon
mon1923:00+11nnw454595 0.0 101989
02:00+10nnw3341100 0.0 101850
05:00+9n113998 0.0 101919
08:00+11se113692 0.0 1019489
11:00+13sse323599 0.0 10181381
14:00+15s333065 0.0 10161456
17:00+16ssw342319 0.0 10141990
20:00+13ssw113319 0.0 1015104